STARLINK-31519, 59546

Orbit data source: Space-Track

STARLINK-31519, 59546 is a payload satellite owned by SpaceX/Seattle (US) in LEO that was launched on Thu, 18 Apr 2024 UTC via an FALCON 9 launch vehicle from the Air Force Eastern Test Range (AFETR). Payload-class satellites include a variety of spacecraft equipped with specific instruments for various scientific and technological missions. These include communications satellites like Starlink; space stations such as the ISS; scientific satellites like the Hubble; Earth observation satellites from companies like Planet Labs, Umbra, and HawkEye 360; GPS; miniature CubeSats for education and research; and military/defense satellites.

Loading next visibility...
Identifier
59546, 2024-074N
Orbit
LEO
Country
Flag of USUS
Related business
Manufacturer
SpaceX/Seattle
Mission
Operational Commercial Communications
Bus & Motor
STARLINK V2M, Unknown motor
Mass
730 kg wet, ~700 kg dry
Launch date (UTC)
2024-04-18 (2 years ago)
Launch vehicle
FALCON 9
Launch site
Air Force Eastern Test Range (AFETR)
Object type
Payload
Rocket body
Debris
Shape & HBR
Box + 2 Pan, 17.7 m
Radar Cross Section
33.884 m², Large (>1 m²)

Expand to show TLE details & history
Last TLE update: 2 days ago

TLE from 2 days ago
0 STARLINK-31519
1 59546U 24074N   26171.24908095 -.00005101  00000-0 -17587-3 0  9990
2 59546  43.0025 123.9652 0001510 289.7712  70.2977 15.27597064121705
Epoch: 2026-06-20T05:58Z
TLE epoch observation values (Epoch: 2026-06-20T05:58:40.594Z)
Latitude
0.00001°
Longitude
125.82966°
Altitude
482.425 km
Speed
7.626 km/s
True Right ascension
08h 15m 51s
True Declination
0° 00' 00"
Sunlit
Object was in daylight at epoch
Visualization orbit readout
Latitude
Unknown
Longitude
Unknown
Altitude
Unknown
Speed
Unknown
Apparent Right ascension
Unknown
Apparent Declination
Unknown
Sunlit
N/A
Visualization observer readout
Local Sidereal Time
21:25:36
Azimuth
Unknown
Elevation
Unknown
Doppler factor
Unknown
Orbital elements
Apogee altitude
485.979 km
Perigee altitude
483.906 km
Semi-major axis
6,863.08 km
Eccentricity
0.00015
Inclination
43.0025°
RAAN
123.9652°
Arg. of periapsis
289.7712°
True anomaly
70.31399°
Mean anomaly
70.2977°
Eccentric anomaly
70.30585°
Mean motion
3.81737 °/min
Orbital period
94.31 mins
BSTAR
-0.00017587
Loading maneuver chart data...
Computing Atmospheric mass density...
Loading historical data...
Loading historical data...
Loading historical data...
Loading historical data...
Loading historical data...
Loading historical data...
Loading historical data...

Documentation

Showing up to 5 results
|